Time,TemperatureF,DewpointF,PressureIn,WindDirection,WindDirectionDegrees,WindSpeedMPH,WindSpeedGustMPH,Humidity,HourlyPrecipIn,Conditions,Clouds,dailyrainin,SoftwareType,DateUTC
2013-07-02 00:02:00,69.1,49.6,24.41,South,180,11.0,11.0,50,0.00,,,0.00,meteohub,2013-07-02 06:02:00,
2013-07-02 00:07:00,69.1,49.6,24.41,South,180,11.0,11.0,50,0.00,,,0.00,meteohub,2013-07-02 06:07:00,
2013-07-02 00:12:00,68.7,50.9,24.41,South,180,14.0,14.0,53,0.00,,,0.00,meteohub,2013-07-02 06:12:00,
2013-07-02 00:17:00,68.7,50.9,24.41,South,180,17.0,17.0,53,0.00,,,0.00,meteohub,2013-07-02 06:17:00,
2013-07-02 00:22:00,68.7,51.4,24.41,SSE,158,15.0,17.0,54,0.00,,,0.00,meteohub,2013-07-02 06:22:00,
2013-07-02 00:27:00,68.5,51.3,24.41,South,180,17.0,17.0,54,0.00,,,0.00,meteohub,2013-07-02 06:27:00,
2013-07-02 00:32:00,68.5,51.8,24.41,South,180,15.0,18.0,55,0.00,,,0.00,meteohub,2013-07-02 06:32:00,
2013-07-02 00:37:00,68.5,51.3,24.41,South,180,20.0,20.0,54,0.00,,,0.00,meteohub,2013-07-02 06:37:00,
2013-07-02 00:42:00,68.4,51.6,24.41,South,180,19.0,20.0,55,0.00,,,0.00,meteohub,2013-07-02 06:42:00,
2013-07-02 00:47:00,68.2,51.8,24.41,South,180,15.0,20.0,56,0.00,,,0.00,meteohub,2013-07-02 06:47:00,
2013-07-02 00:52:00,68.0,51.8,24.41,South,180,15.0,20.0,56,0.00,,,0.00,meteohub,2013-07-02 06:52:00,
2013-07-02 00:57:00,68.0,51.8,24.41,South,180,16.0,20.0,56,0.00,,,0.00,meteohub,2013-07-02 06:57:00,
2013-07-02 01:02:00,67.8,52.0,24.41,South,180,14.0,20.0,57,0.00,,,0.00,meteohub,2013-07-02 07:02:00,
2013-07-02 01:07:00,67.8,52.0,24.41,South,180,14.0,20.0,57,0.00,,,0.00,meteohub,2013-07-02 07:07:00,
2013-07-02 01:12:00,67.1,51.8,24.42,South,180,15.0,16.0,58,0.00,,,0.00,meteohub,2013-07-02 07:12:00,
2013-07-02 01:17:00,66.9,51.6,24.42,South,180,19.0,19.0,58,0.00,,,0.00,meteohub,2013-07-02 07:17:00,
2013-07-02 01:22:00,66.9,51.6,24.41,South,180,16.0,19.0,58,0.00,,,0.00,meteohub,2013-07-02 07:22:00,
2013-07-02 01:27:00,66.7,52.0,24.41,South,180,17.0,19.0,59,0.00,,,0.00,meteohub,2013-07-02 07:27:00,
2013-07-02 01:32:00,66.9,52.2,24.41,South,180,16.0,19.0,59,0.00,,,0.00,meteohub,2013-07-02 07:32:00,
2013-07-02 01:37:00,66.4,52.2,24.41,South,180,18.0,18.0,60,0.00,,,0.00,meteohub,2013-07-02 07:37:00,
2013-07-02 01:42:00,66.6,52.2,24.41,South,180,15.0,18.0,60,0.00,,,0.00,meteohub,2013-07-02 07:42:00,
2013-07-02 01:47:00,66.4,52.2,24.41,South,180,17.0,18.0,60,0.00,,,0.00,meteohub,2013-07-02 07:47:00,
2013-07-02 01:52:00,66.2,52.0,24.41,South,180,13.0,19.0,60,0.00,,,0.00,meteohub,2013-07-02 07:52:00,
2013-07-02 01:57:00,66.2,52.0,24.41,South,180,14.0,19.0,60,0.00,,,0.00,meteohub,2013-07-02 07:57:00,
2013-07-02 02:02:00,66.4,52.2,24.41,South,180,13.0,19.0,60,0.00,,,0.00,meteohub,2013-07-02 08:02:00,
2013-07-02 02:07:00,66.4,52.2,24.42,South,180,13.0,15.0,60,0.00,,,0.00,meteohub,2013-07-02 08:07:00,
2013-07-02 02:12:00,66.2,51.4,24.41,South,180,15.0,15.0,59,0.00,,,0.00,meteohub,2013-07-02 08:12:00,
2013-07-02 02:17:00,66.4,51.6,24.41,South,180,14.0,20.0,59,0.00,,,0.00,meteohub,2013-07-02 08:17:00,
2013-07-02 02:22:00,66.0,51.8,24.41,South,180,13.0,20.0,60,0.00,,,0.00,meteohub,2013-07-02 08:22:00,
2013-07-02 02:27:00,66.0,51.8,24.41,South,180,15.0,20.0,60,0.00,,,0.00,meteohub,2013-07-02 08:27:00,
2013-07-02 02:32:00,66.2,51.4,24.41,South,180,16.0,16.0,59,0.00,,,0.00,meteohub,2013-07-02 08:32:00,
2013-07-02 02:37:00,66.0,51.8,24.42,South,180,14.0,16.0,60,0.00,,,0.00,meteohub,2013-07-02 08:37:00,
2013-07-02 02:42:00,65.8,52.0,24.41,South,180,15.0,16.0,61,0.00,,,0.00,meteohub,2013-07-02 08:42:00,
2013-07-02 02:47:00,65.5,51.6,24.41,South,180,14.0,16.0,61,0.00,,,0.00,meteohub,2013-07-02 08:47:00,
2013-07-02 02:52:00,65.7,51.8,24.41,South,180,13.0,15.0,61,0.00,,,0.00,meteohub,2013-07-02 08:52:00,
2013-07-02 02:57:00,65.7,51.8,24.41,South,180,13.0,15.0,61,0.00,,,0.00,meteohub,2013-07-02 08:57:00,
2013-07-02 03:02:00,65.7,51.8,24.41,South,180,15.0,15.0,61,0.00,,,0.00,meteohub,2013-07-02 09:02:00,
2013-07-02 03:07:00,65.7,51.8,24.41,South,180,15.0,15.0,61,0.00,,,0.00,meteohub,2013-07-02 09:07:00,
2013-07-02 03:12:00,65.5,51.6,24.41,South,180,14.0,15.0,61,0.00,,,0.00,meteohub,2013-07-02 09:12:00,
2013-07-02 03:17:00,65.5,51.3,24.41,South,180,17.0,17.0,60,0.00,,,0.00,meteohub,2013-07-02 09:17:00,
2013-07-02 03:22:00,65.3,51.4,24.40,South,180,15.0,17.0,61,0.00,,,0.00,meteohub,2013-07-02 09:22:00,
2013-07-02 03:27:00,65.1,51.3,24.40,South,180,14.0,17.0,61,0.00,,,0.00,meteohub,2013-07-02 09:27:00,
2013-07-02 03:32:00,65.5,51.3,24.40,South,180,13.0,17.0,60,0.00,,,0.00,meteohub,2013-07-02 09:32:00,
2013-07-02 03:37:00,65.3,51.1,24.40,South,180,15.0,16.0,60,0.00,,,0.00,meteohub,2013-07-02 09:37:00,
2013-07-02 03:42:00,65.5,50.7,24.40,South,180,13.0,15.0,59,0.00,,,0.00,meteohub,2013-07-02 09:42:00,
2013-07-02 03:47:00,65.1,50.9,24.40,South,180,11.0,15.0,60,0.00,,,0.00,meteohub,2013-07-02 09:47:00,
2013-07-02 03:52:00,65.3,50.5,24.40,South,180,13.0,15.0,59,0.00,,,0.00,meteohub,2013-07-02 09:52:00,
2013-07-02 03:57:00,65.3,50.5,24.40,SSE,158,14.0,15.0,59,0.00,,,0.00,meteohub,2013-07-02 09:57:00,
2013-07-02 04:02:00,65.7,50.5,24.40,South,180,13.0,14.0,58,0.00,,,0.00,meteohub,2013-07-02 10:02:00,
2013-07-02 04:07:00,65.7,50.5,24.40,South,180,13.0,14.0,58,0.00,,,0.00,meteohub,2013-07-02 10:07:00,
2013-07-02 04:12:00,65.3,50.5,24.40,South,180,15.0,15.0,59,0.00,,,0.00,meteohub,2013-07-02 10:12:00,
2013-07-02 04:17:00,65.3,50.5,24.40,South,180,14.0,15.0,59,0.00,,,0.00,meteohub,2013-07-02 10:17:00,
2013-07-02 04:22:00,64.9,50.7,24.40,South,180,15.0,16.0,60,0.00,,,0.00,meteohub,2013-07-02 10:22:00,
2013-07-02 04:27:00,64.9,50.7,24.40,South,180,12.0,16.0,60,0.00,,,0.00,meteohub,2013-07-02 10:27:00,
2013-07-02 04:32:00,64.8,51.1,24.40,South,180,13.0,15.0,61,0.00,,,0.00,meteohub,2013-07-02 10:32:00,
2013-07-02 04:37:00,65.1,50.4,24.40,South,180,15.0,15.0,59,0.00,,,0.00,meteohub,2013-07-02 10:37:00,
2013-07-02 04:42:00,65.1,50.4,24.40,South,180,15.0,17.0,59,0.00,,,0.00,meteohub,2013-07-02 10:42:00,
2013-07-02 04:47:00,64.4,50.7,24.40,South,180,14.0,17.0,61,0.00,,,0.00,meteohub,2013-07-02 10:47:00,
2013-07-02 04:52:00,64.2,50.5,24.40,South,180,15.0,17.0,61,0.00,,,0.00,meteohub,2013-07-02 10:52:00,
2013-07-02 04:57:00,64.2,50.5,24.40,South,180,15.0,15.0,61,0.00,,,0.00,meteohub,2013-07-02 10:57:00,
2013-07-02 05:02:00,64.2,50.5,24.40,South,180,14.0,16.0,61,0.00,,,0.00,meteohub,2013-07-02 11:02:00,
2013-07-02 05:07:00,64.2,50.5,24.40,South,180,14.0,16.0,61,0.00,,,0.00,meteohub,2013-07-02 11:07:00,
2013-07-02 05:12:00,64.0,50.7,24.40,South,180,14.0,16.0,62,0.00,,,0.00,meteohub,2013-07-02 11:12:00,
2013-07-02 05:17:00,63.9,50.5,24.40,South,180,15.0,15.0,62,0.00,,,0.00,meteohub,2013-07-02 11:17:00,
2013-07-02 05:22:00,63.5,50.7,24.40,South,180,14.0,17.0,63,0.00,,,0.00,meteohub,2013-07-02 11:22:00,
2013-07-02 05:27:00,63.5,50.2,24.40,South,180,15.0,17.0,62,0.00,,,0.00,meteohub,2013-07-02 11:27:00,
2013-07-02 05:32:00,63.5,50.7,24.40,South,180,14.0,17.0,63,0.00,,,0.00,meteohub,2013-07-02 11:32:00,
2013-07-02 05:37:00,63.5,50.2,24.40,South,180,17.0,17.0,62,0.00,,,0.00,meteohub,2013-07-02 11:37:00,
2013-07-02 05:42:00,63.9,50.2,24.40,South,180,17.0,17.0,61,0.00,,,0.00,meteohub,2013-07-02 11:42:00,
2013-07-02 05:47:00,63.9,50.2,24.40,South,180,15.0,17.0,61,0.00,,,0.00,meteohub,2013-07-02 11:47:00,
2013-07-02 05:52:00,64.2,50.0,24.40,South,180,15.0,17.0,60,0.00,,,0.00,meteohub,2013-07-02 11:52:00,
2013-07-02 05:57:00,64.6,50.4,24.40,South,180,12.0,17.0,60,0.00,,,0.00,meteohub,2013-07-02 11:57:00,
2013-07-02 06:02:00,64.8,50.2,24.40,South,180,11.0,15.0,59,0.00,,,0.00,meteohub,2013-07-02 12:02:00,
2013-07-02 06:07:00,64.8,50.2,24.40,South,180,11.0,15.0,59,0.00,,,0.00,meteohub,2013-07-02 12:07:00,
2013-07-02 06:12:00,65.5,50.4,24.40,South,180,14.0,14.0,58,0.00,,,0.00,meteohub,2013-07-02 12:12:00,
2013-07-02 06:17:00,65.1,50.4,24.40,South,180,14.0,14.0,59,0.00,,,0.00,meteohub,2013-07-02 12:17:00,
2013-07-02 06:22:00,64.9,50.2,24.40,South,180,15.0,15.0,59,0.00,,,0.00,meteohub,2013-07-02 12:22:00,
2013-07-02 06:27:00,65.1,50.4,24.40,South,180,14.0,15.0,59,0.00,,,0.00,meteohub,2013-07-02 12:27:00,
2013-07-02 06:32:00,64.9,50.2,24.40,South,180,15.0,15.0,59,0.00,,,0.00,meteohub,2013-07-02 12:32:00,
2013-07-02 06:37:00,65.1,50.4,24.40,South,180,15.0,15.0,59,0.00,,,0.00,meteohub,2013-07-02 12:37:00,
2013-07-02 06:42:00,65.1,50.9,24.40,South,180,15.0,16.0,60,0.00,,,0.00,meteohub,2013-07-02 12:42:00,
2013-07-02 06:47:00,65.3,50.5,24.40,South,180,17.0,17.0,59,0.00,,,0.00,meteohub,2013-07-02 12:47:00,
2013-07-02 06:52:00,65.3,51.1,24.40,South,180,16.0,17.0,60,0.00,,,0.00,meteohub,2013-07-02 12:52:00,
2013-07-02 06:57:00,65.5,51.6,24.40,South,180,16.0,17.0,61,0.00,,,0.00,meteohub,2013-07-02 12:57:00,
2013-07-02 07:02:00,65.3,52.3,24.39,South,180,15.0,17.0,63,0.00,,,0.00,meteohub,2013-07-02 13:02:00,
2013-07-02 07:07:00,65.3,52.3,24.39,South,180,15.0,17.0,63,0.00,,,0.00,meteohub,2013-07-02 13:07:00,
2013-07-02 07:12:00,65.1,53.1,24.39,South,180,17.0,17.0,65,0.00,,,0.00,meteohub,2013-07-02 13:12:00,
2013-07-02 07:17:00,65.5,53.1,24.39,South,180,18.0,18.0,64,0.00,,,0.00,meteohub,2013-07-02 13:17:00,
2013-07-02 07:22:00,65.8,52.9,24.39,South,180,17.0,21.0,63,0.00,,,0.00,meteohub,2013-07-02 13:22:00,
2013-07-02 07:27:00,66.0,53.1,24.39,South,180,17.0,21.0,63,0.00,,,0.00,meteohub,2013-07-02 13:27:00,
2013-07-02 07:32:00,66.2,52.9,24.39,South,180,17.0,21.0,62,0.00,,,0.00,meteohub,2013-07-02 13:32:00,
2013-07-02 07:37:00,66.4,53.4,24.39,South,180,17.0,19.0,63,0.00,,,0.00,meteohub,2013-07-02 13:37:00,
2013-07-02 07:42:00,66.4,52.5,24.39,South,180,18.0,19.0,61,0.00,,,0.00,meteohub,2013-07-02 13:42:00,
2013-07-02 07:47:00,66.4,52.5,24.39,South,180,19.0,19.0,61,0.00,,,0.00,meteohub,2013-07-02 13:47:00,
2013-07-02 07:52:00,66.7,52.0,24.39,South,180,21.0,21.0,59,0.00,,,0.00,meteohub,2013-07-02 13:52:00,
2013-07-02 07:57:00,66.7,52.3,24.39,South,180,19.0,21.0,60,0.00,,,0.00,meteohub,2013-07-02 13:57:00,
2013-07-02 08:02:00,66.9,52.2,24.39,South,180,18.0,21.0,59,0.00,,,0.00,meteohub,2013-07-02 14:02:00,
2013-07-02 08:07:00,66.9,52.2,24.39,South,180,18.0,21.0,59,0.00,,,0.00,meteohub,2013-07-02 14:07:00,
2013-07-02 08:12:00,67.5,51.6,24.39,South,180,21.0,21.0,57,0.00,,,0.00,meteohub,2013-07-02 14:12:00,
2013-07-02 08:17:00,67.6,52.9,24.38,South,180,19.0,23.0,59,0.00,,,0.00,meteohub,2013-07-02 14:17:00,
2013-07-02 08:22:00,68.0,52.2,24.39,South,180,22.0,23.0,57,0.00,,,0.00,meteohub,2013-07-02 14:22:00,
2013-07-02 08:27:00,67.8,53.4,24.39,South,180,18.0,23.0,60,0.00,,,0.00,meteohub,2013-07-02 14:27:00,
2013-07-02 08:32:00,67.8,52.0,24.39,South,180,21.0,22.0,57,0.00,,,0.00,meteohub,2013-07-02 14:32:00,
2013-07-02 08:37:00,68.4,54.0,24.39,SSE,158,18.0,23.0,60,0.00,,,0.00,meteohub,2013-07-02 14:37:00,
2013-07-02 08:42:00,68.5,53.2,24.38,South,180,18.0,23.0,58,0.00,,,0.00,meteohub,2013-07-02 14:42:00,
2013-07-02 08:47:00,68.9,53.1,24.39,South,180,18.0,23.0,57,0.00,,,0.00,meteohub,2013-07-02 14:47:00,
2013-07-02 08:52:00,69.3,53.4,24.38,South,180,17.0,21.0,57,0.00,,,0.00,meteohub,2013-07-02 14:52:00,
2013-07-02 08:57:00,69.6,52.7,24.38,South,180,17.0,19.0,55,0.00,,,0.00,meteohub,2013-07-02 14:57:00,
2013-07-02 09:02:00,69.6,52.7,24.38,South,180,19.0,19.0,55,0.00,,,0.00,meteohub,2013-07-02 15:02:00,
2013-07-02 09:07:00,69.6,52.7,24.39,South,180,19.0,19.0,55,0.00,,,0.00,meteohub,2013-07-02 15:07:00,
2013-07-02 09:12:00,69.6,53.2,24.38,South,180,20.0,21.0,56,0.00,,,0.00,meteohub,2013-07-02 15:12:00,
2013-07-02 09:17:00,70.0,55.0,24.39,SE,135,16.0,21.0,59,0.00,,,0.00,meteohub,2013-07-02 15:17:00,
2013-07-02 09:22:00,70.3,53.4,24.39,South,180,17.0,21.0,55,0.00,,,0.00,meteohub,2013-07-02 15:22:00,
2013-07-02 09:27:00,70.5,53.6,24.39,South,180,15.0,20.0,55,0.00,,,0.00,meteohub,2013-07-02 15:27:00,
2013-07-02 09:32:00,71.1,56.5,24.38,South,180,17.0,18.0,60,0.00,,,0.00,meteohub,2013-07-02 15:32:00,
2013-07-02 09:42:00,71.8,53.8,24.38,South,180,16.0,17.0,53,0.00,,,0.00,meteohub,2013-07-02 15:42:00,
2013-07-02 09:47:00,71.4,55.4,24.39,South,180,15.0,17.0,57,0.00,,,0.00,meteohub,2013-07-02 15:47:00,
2013-07-02 09:52:00,71.8,54.3,24.39,South,180,15.0,17.0,54,0.00,,,0.00,meteohub,2013-07-02 15:52:00,
2013-07-02 09:57:00,71.8,54.3,24.38,South,180,15.0,17.0,54,0.00,,,0.00,meteohub,2013-07-02 15:57:00,
2013-07-02 10:02:00,71.8,54.3,24.38,South,180,15.0,16.0,54,0.00,,,0.00,meteohub,2013-07-02 16:02:00,
2013-07-02 10:07:00,71.8,54.3,24.38,South,180,15.0,16.0,54,0.00,,,0.00,meteohub,2013-07-02 16:07:00,
2013-07-02 10:12:00,72.5,54.3,24.38,South,180,15.0,16.0,53,0.00,,,0.00,meteohub,2013-07-02 16:12:00,
2013-07-02 10:17:00,72.9,54.7,24.38,South,180,13.0,17.0,53,0.00,,,0.00,meteohub,2013-07-02 16:17:00,
2013-07-02 10:22:00,72.7,55.0,24.38,South,180,15.0,17.0,54,0.00,,,0.00,meteohub,2013-07-02 16:22:00,
2013-07-02 10:27:00,73.2,57.0,24.38,SE,135,13.0,17.0,57,0.00,,,0.00,meteohub,2013-07-02 16:27:00,
2013-07-02 10:32:00,73.6,55.4,24.38,South,180,16.0,17.0,53,0.00,,,0.00,meteohub,2013-07-02 16:32:00,
2013-07-02 10:37:00,73.6,55.9,24.38,South,180,15.0,17.0,54,0.00,,,0.00,meteohub,2013-07-02 16:37:00,
2013-07-02 10:42:00,74.3,56.1,24.38,South,180,15.0,16.0,53,0.00,,,0.00,meteohub,2013-07-02 16:42:00,
2013-07-02 10:47:00,74.5,56.3,24.38,SE,135,16.0,16.0,53,0.00,,,0.00,meteohub,2013-07-02 16:47:00,
2013-07-02 10:52:00,75.0,55.6,24.38,South,180,13.0,16.0,51,0.00,,,0.00,meteohub,2013-07-02 16:52:00,
2013-07-02 10:57:00,74.8,56.1,24.38,South,180,15.0,16.0,52,0.00,,,0.00,meteohub,2013-07-02 16:57:00,
2013-07-02 11:02:00,74.8,56.1,24.38,SSE,158,16.0,18.0,52,0.00,,,0.00,meteohub,2013-07-02 17:02:00,
2013-07-02 11:07:00,74.8,56.1,24.38,SSE,158,16.0,18.0,52,0.00,,,0.00,meteohub,2013-07-02 17:07:00,
2013-07-02 11:12:00,75.9,57.0,24.38,South,180,14.0,18.0,52,0.00,,,0.00,meteohub,2013-07-02 17:12:00,
2013-07-02 11:17:00,76.5,57.0,24.38,South,180,16.0,16.0,51,0.00,,,0.00,meteohub,2013-07-02 17:17:00,
2013-07-02 11:22:00,77.0,57.6,24.38,SSE,158,17.0,17.0,51,0.00,,,0.00,meteohub,2013-07-02 17:22:00,
2013-07-02 11:27:00,77.4,57.2,24.38,South,180,17.0,17.0,50,0.00,,,0.00,meteohub,2013-07-02 17:27:00,
2013-07-02 11:32:00,77.4,57.2,24.38,SSE,158,12.0,17.0,50,0.00,,,0.00,meteohub,2013-07-02 17:32:00,
2013-07-02 11:37:00,77.4,56.7,24.38,SSE,158,17.0,17.0,49,0.00,,,0.00,meteohub,2013-07-02 17:37:00,
2013-07-02 11:42:00,78.1,58.5,24.38,South,180,14.0,18.0,51,0.00,,,0.00,meteohub,2013-07-02 17:42:00,
2013-07-02 11:47:00,78.6,59.0,24.38,South,180,13.0,18.0,51,0.00,,,0.00,meteohub,2013-07-02 17:47:00,
2013-07-02 11:52:00,78.4,57.2,24.38,South,180,11.0,17.0,48,0.00,,,0.00,meteohub,2013-07-02 17:52:00,
2013-07-02 11:57:00,79.0,58.1,24.38,South,180,15.0,19.0,49,0.00,,,0.00,meteohub,2013-07-02 17:57:00,
2013-07-02 12:07:00,79.2,57.2,24.38,South,180,14.0,15.0,47,0.00,,,0.00,meteohub,2013-07-02 18:07:00,
2013-07-02 12:12:00,80.1,57.4,24.38,SE,135,11.0,15.0,46,0.00,,,0.00,meteohub,2013-07-02 18:12:00,
2013-07-02 12:17:00,79.9,57.2,24.38,SE,135,11.0,15.0,46,0.00,,,0.00,meteohub,2013-07-02 18:17:00,
2013-07-02 12:22:00,80.8,59.9,24.38,South,180,12.0,15.0,49,0.00,,,0.00,meteohub,2013-07-02 18:22:00,
2013-07-02 12:27:00,81.7,57.6,24.37,SSE,158,13.0,13.0,44,0.00,,,0.00,meteohub,2013-07-02 18:27:00,
2013-07-02 12:32:00,81.9,57.2,24.37,SSW,203,8.0,15.0,43,0.00,,,0.00,meteohub,2013-07-02 18:32:00,
2013-07-02 12:37:00,81.7,56.3,24.38,SSE,158,11.0,15.0,42,0.00,,,0.00,meteohub,2013-07-02 18:37:00,
2013-07-02 12:42:00,82.4,56.3,24.38,SSE,158,12.0,15.0,41,0.00,,,0.00,meteohub,2013-07-02 18:42:00,
2013-07-02 12:52:00,82.6,55.0,24.37,South,180,11.0,14.0,39,0.00,,,0.00,meteohub,2013-07-02 18:52:00,
2013-07-02 12:57:00,82.8,57.9,24.37,South,180,8.0,13.0,43,0.00,,,0.00,meteohub,2013-07-02 18:57:00,
2013-07-02 13:02:00,82.9,56.1,24.37,South,180,9.0,15.0,40,0.00,,,0.00,meteohub,2013-07-02 19:02:00,
2013-07-02 13:07:00,82.9,56.1,24.37,South,180,9.0,15.0,40,0.00,,,0.00,meteohub,2013-07-02 19:07:00,
2013-07-02 13:12:00,83.5,56.7,24.37,South,180,6.0,15.0,40,0.00,,,0.00,meteohub,2013-07-02 19:12:00,
2013-07-02 13:17:00,84.9,56.5,24.37,SE,135,5.0,12.0,38,0.00,,,0.00,meteohub,2013-07-02 19:17:00,
2013-07-02 13:22:00,85.1,58.8,24.37,South,180,10.0,12.0,41,0.00,,,0.00,meteohub,2013-07-02 19:22:00,
2013-07-02 13:27:00,85.3,53.8,24.37,South,180,10.0,11.0,34,0.00,,,0.00,meteohub,2013-07-02 19:27:00,
2013-07-02 13:37:00,86.0,53.6,24.37,SW,225,2.0,11.0,33,0.00,,,0.00,meteohub,2013-07-02 19:37:00,
2013-07-02 13:42:00,87.1,56.1,24.37,SE,135,4.0,11.0,35,0.00,,,0.00,meteohub,2013-07-02 19:42:00,
2013-07-02 13:47:00,87.1,53.6,24.37,SSW,203,5.0,11.0,32,0.00,,,0.00,meteohub,2013-07-02 19:47:00,
2013-07-02 13:52:00,87.1,50.0,24.37,West,270,10.0,10.0,28,0.00,,,0.00,meteohub,2013-07-02 19:52:00,
2013-07-02 13:57:00,88.3,51.1,24.37,North,0,6.0,10.0,28,0.00,,,0.00,meteohub,2013-07-02 19:57:00,
2013-07-02 14:02:00,88.2,52.9,24.37,NW,315,7.0,10.0,30,0.00,,,0.00,meteohub,2013-07-02 20:02:00,
2013-07-02 14:07:00,88.2,52.9,24.36,NW,315,7.0,10.0,30,0.00,,,0.00,meteohub,2013-07-02 20:07:00,
2013-07-02 14:12:00,87.1,49.1,24.36,North,0,6.0,9.0,27,0.00,,,0.00,meteohub,2013-07-02 20:12:00,
2013-07-02 14:17:00,86.9,47.8,24.36,North,0,8.0,12.0,26,0.00,,,0.00,meteohub,2013-07-02 20:17:00,
2013-07-02 14:22:00,87.1,51.8,24.36,North,0,13.0,13.0,30,0.00,,,0.00,meteohub,2013-07-02 20:22:00,
2013-07-02 14:27:00,86.4,41.9,24.37,North,0,9.0,13.0,21,0.00,,,0.00,meteohub,2013-07-02 20:27:00,
2013-07-02 14:32:00,86.4,44.2,24.37,North,0,12.0,15.0,23,0.00,,,0.00,meteohub,2013-07-02 20:32:00,
2013-07-02 14:37:00,86.7,42.1,24.36,North,0,15.0,15.0,21,0.00,,,0.00,meteohub,2013-07-02 20:37:00,
2013-07-02 14:47:00,86.2,48.2,24.36,North,0,15.0,17.0,27,0.00,,,0.00,meteohub,2013-07-02 20:47:00,
2013-07-02 14:52:00,86.5,39.4,24.36,North,0,12.0,17.0,19,0.00,,,0.00,meteohub,2013-07-02 20:52:00,
2013-07-02 14:57:00,86.2,45.1,24.36,NW,315,16.0,17.0,24,0.00,,,0.00,meteohub,2013-07-02 20:57:00,
2013-07-02 15:02:00,86.4,33.3,24.36,NW,315,16.0,18.0,15,0.00,,,0.00,meteohub,2013-07-02 21:02:00,
2013-07-02 15:07:00,86.4,33.3,24.35,NW,315,16.0,18.0,15,0.00,,,0.00,meteohub,2013-07-02 21:07:00,
2013-07-02 15:12:00,86.5,44.4,24.36,North,0,11.0,18.0,23,0.00,,,0.00,meteohub,2013-07-02 21:12:00,
2013-07-02 15:17:00,86.9,39.7,24.36,North,0,6.0,16.0,19,0.00,,,0.00,meteohub,2013-07-02 21:17:00,
2013-07-02 15:22:00,87.3,39.9,24.36,North,0,10.0,16.0,19,0.00,,,0.00,meteohub,2013-07-02 21:22:00,
2013-07-02 15:27:00,86.4,44.2,24.36,North,0,12.0,14.0,23,0.00,,,0.00,meteohub,2013-07-02 21:27:00,
2013-07-02 15:32:00,86.7,48.7,24.36,NE,45,11.0,16.0,27,0.00,,,0.00,meteohub,2013-07-02 21:32:00,
2013-07-02 15:37:00,87.4,50.4,24.35,North,0,10.0,16.0,28,0.00,,,0.00,meteohub,2013-07-02 21:37:00,
2013-07-02 15:42:00,86.9,46.8,24.35,North,0,13.0,16.0,25,0.00,,,0.00,meteohub,2013-07-02 21:42:00,
2013-07-02 15:47:00,86.4,47.5,24.35,North,0,14.0,14.0,26,0.00,,,0.00,meteohub,2013-07-02 21:47:00,
2013-07-02 15:52:00,86.4,47.5,24.35,North,0,13.0,17.0,26,0.00,,,0.00,meteohub,2013-07-02 21:52:00,
2013-07-02 15:57:00,86.4,43.0,24.35,North,0,15.0,17.0,22,0.00,,,0.00,meteohub,2013-07-02 21:57:00,
2013-07-02 16:02:00,86.7,43.3,24.35,NW,315,11.0,17.0,22,0.00,,,0.00,meteohub,2013-07-02 22:02:00,
2013-07-02 16:07:00,86.7,43.3,24.35,NW,315,11.0,17.0,22,0.00,,,0.00,meteohub,2013-07-02 22:07:00,
2013-07-02 16:12:00,86.4,37.9,24.35,North,0,15.0,17.0,18,0.00,,,0.00,meteohub,2013-07-02 22:12:00,
2013-07-02 16:17:00,86.9,36.9,24.35,NW,315,9.0,16.0,17,0.00,,,0.00,meteohub,2013-07-02 22:17:00,
2013-07-02 16:22:00,87.4,43.9,24.34,North,0,12.0,16.0,22,0.00,,,0.00,meteohub,2013-07-02 22:22:00,
2013-07-02 16:27:00,87.4,38.7,24.34,WNW,293,11.0,16.0,18,0.00,,,0.00,meteohub,2013-07-02 22:27:00,
2013-07-02 16:32:00,87.6,37.4,24.34,North,0,13.0,13.0,17,0.00,,,0.00,meteohub,2013-07-02 22:32:00,
2013-07-02 16:37:00,87.3,37.2,24.34,North,0,10.0,15.0,17,0.00,,,0.00,meteohub,2013-07-02 22:37:00,
2013-07-02 16:42:00,87.6,44.1,24.34,North,0,8.0,15.0,22,0.00,,,0.00,meteohub,2013-07-02 22:42:00,
2013-07-02 16:47:00,87.8,36.0,24.34,North,0,11.0,15.0,16,0.00,,,0.00,meteohub,2013-07-02 22:47:00,
2013-07-02 16:52:00,87.6,37.4,24.34,North,0,9.0,15.0,17,0.00,,,0.00,meteohub,2013-07-02 22:52:00,
2013-07-02 16:57:00,87.8,45.3,24.34,NE,45,9.0,12.0,23,0.00,,,0.00,meteohub,2013-07-02 22:57:00,
2013-07-02 17:02:00,87.6,40.3,24.34,NE,45,8.0,12.0,19,0.00,,,0.00,meteohub,2013-07-02 23:02:00,
2013-07-02 17:07:00,87.6,40.3,24.34,NE,45,8.0,12.0,19,0.00,,,0.00,meteohub,2013-07-02 23:07:00,
2013-07-02 17:12:00,89.8,44.6,24.34,NE,45,4.0,12.0,21,0.00,,,0.00,meteohub,2013-07-02 23:12:00,
2013-07-02 17:17:00,89.8,47.1,24.34,NE,45,7.0,8.0,23,0.00,,,0.00,meteohub,2013-07-02 23:17:00,
2013-07-02 17:22:00,89.4,40.3,24.34,North,0,4.0,8.0,18,0.00,,,0.00,meteohub,2013-07-02 23:22:00,
2013-07-02 17:27:00,89.6,39.0,24.33,NE,45,6.0,8.0,17,0.00,,,0.00,meteohub,2013-07-02 23:27:00,
2013-07-02 17:32:00,89.1,40.1,24.33,North,0,2.0,8.0,18,0.00,,,0.00,meteohub,2013-07-02 23:32:00,
2013-07-02 17:37:00,88.7,33.4,24.33,North,0,2.0,6.0,14,0.00,,,0.00,meteohub,2013-07-02 23:37:00,
2013-07-02 17:42:00,87.6,40.3,24.33,NE,45,4.0,6.0,19,0.00,,,0.00,meteohub,2013-07-02 23:42:00,
2013-07-02 17:47:00,86.5,44.4,24.33,NE,45,5.0,5.0,23,0.00,,,0.00,meteohub,2013-07-02 23:47:00,
2013-07-02 17:52:00,86.9,51.8,24.33,NNW,338,6.0,6.0,30,0.00,,,0.00,meteohub,2013-07-02 23:52:00,
2013-07-02 17:57:00,88.3,49.1,24.32,NE,45,5.0,6.0,26,0.00,,,0.00,meteohub,2013-07-02 23:57:00,
2013-07-02 18:02:00,88.7,39.7,24.32,NE,45,6.0,7.0,18,0.00,,,0.00,meteohub,2013-07-03 00:02:00,
2013-07-02 18:07:00,88.7,39.7,24.32,NE,45,6.0,7.0,18,0.00,,,0.00,meteohub,2013-07-03 00:07:00,
2013-07-02 18:12:00,88.5,47.1,24.32,SE,135,4.0,7.0,24,0.00,,,0.00,meteohub,2013-07-03 00:12:00,
2013-07-02 18:17:00,88.2,48.9,24.32,SE,135,4.0,6.0,26,0.00,,,0.00,meteohub,2013-07-03 00:17:00,
2013-07-02 18:22:00,87.8,48.6,24.32,SE,135,5.0,6.0,26,0.00,,,0.00,meteohub,2013-07-03 00:22:00,
2013-07-02 18:27:00,87.4,47.3,24.32,SE,135,4.0,7.0,25,0.00,,,0.00,meteohub,2013-07-03 00:27:00,
2013-07-02 18:32:00,87.4,47.3,24.31,SE,135,4.0,7.0,25,0.00,,,0.00,meteohub,2013-07-03 00:32:00,
2013-07-02 18:37:00,87.8,47.7,24.32,NE,45,4.0,7.0,25,0.00,,,0.00,meteohub,2013-07-03 00:37:00,
2013-07-02 18:42:00,87.8,47.7,24.31,NE,45,5.0,5.0,25,0.00,,,0.00,meteohub,2013-07-03 00:42:00,
2013-07-02 18:47:00,87.8,41.7,24.31,NE,45,5.0,6.0,20,0.00,,,0.00,meteohub,2013-07-03 00:47:00,
2013-07-02 18:52:00,88.0,41.9,24.31,NE,45,4.0,6.0,20,0.00,,,0.00,meteohub,2013-07-03 00:52:00,
2013-07-02 18:57:00,88.3,40.8,24.31,East,90,3.0,6.0,19,0.00,,,0.00,meteohub,2013-07-03 00:57:00,
2013-07-02 19:02:00,88.2,39.4,24.31,East,90,3.0,5.0,18,0.00,,,0.00,meteohub,2013-07-03 01:02:00,
2013-07-02 19:07:00,88.2,39.4,24.30,East,90,3.0,4.0,18,0.00,,,0.00,meteohub,2013-07-03 01:07:00,
2013-07-02 19:12:00,86.7,43.3,24.30,SE,135,5.0,6.0,22,0.00,,,0.00,meteohub,2013-07-03 01:12:00,
2013-07-02 19:17:00,86.7,43.3,24.30,SE,135,5.0,6.0,22,0.00,,,0.00,meteohub,2013-07-03 01:17:00,
2013-07-02 19:22:00,86.4,46.4,24.30,SE,135,4.0,6.0,25,0.00,,,0.00,meteohub,2013-07-03 01:22:00,
2013-07-02 19:27:00,86.4,44.2,24.30,SE,135,4.0,5.0,23,0.00,,,0.00,meteohub,2013-07-03 01:27:00,
2013-07-02 19:32:00,86.2,42.8,24.30,SE,135,4.0,5.0,22,0.00,,,0.00,meteohub,2013-07-03 01:32:00,
2013-07-02 19:37:00,86.0,43.9,24.30,East,90,3.0,5.0,23,0.00,,,0.00,meteohub,2013-07-03 01:37:00,
2013-07-02 19:42:00,86.5,41.9,24.30,East,90,2.0,5.0,21,0.00,,,0.00,meteohub,2013-07-03 01:42:00,
2013-07-02 19:47:00,87.3,39.9,24.30,SE,135,2.0,5.0,19,0.00,,,0.00,meteohub,2013-07-03 01:47:00,
2013-07-02 19:52:00,87.8,41.7,24.30,SE,135,2.0,4.0,20,0.00,,,0.00,meteohub,2013-07-03 01:52:00,
2013-07-02 19:57:00,87.6,37.4,24.30,SE,135,2.0,2.0,17,0.00,,,0.00,meteohub,2013-07-03 01:57:00,
2013-07-02 20:02:00,87.6,37.4,24.30,SE,135,2.0,2.0,17,0.00,,,0.00,meteohub,2013-07-03 02:02:00,
2013-07-02 20:07:00,87.6,37.4,24.30,SE,135,2.0,2.0,17,0.00,,,0.00,meteohub,2013-07-03 02:07:00,
2013-07-02 20:12:00,88.2,32.9,24.30,South,180,2.0,2.0,14,0.00,,,0.00,meteohub,2013-07-03 02:12:00,
2013-07-02 20:17:00,88.2,31.1,24.30,SW,225,3.0,3.0,13,0.00,,,0.00,meteohub,2013-07-03 02:17:00,
2013-07-02 20:27:00,85.6,34.3,24.29,SW,225,6.0,6.0,16,0.00,,,0.00,meteohub,2013-07-03 02:27:00,
2013-07-02 20:37:00,84.2,34.7,24.29,SW,225,7.0,7.0,17,0.00,,,0.00,meteohub,2013-07-03 02:37:00,
2013-07-02 20:42:00,83.3,40.5,24.29,SW,225,8.0,8.0,22,0.00,,,0.00,meteohub,2013-07-03 02:42:00,
2013-07-02 20:47:00,83.1,41.5,24.29,SW,225,7.0,8.0,23,0.00,,,0.00,meteohub,2013-07-03 02:47:00,
2013-07-02 20:52:00,82.4,46.0,24.28,SW,225,11.0,11.0,28,0.00,,,0.00,meteohub,2013-07-03 02:52:00,
2013-07-02 20:57:00,81.3,44.1,24.29,SW,225,8.0,11.0,27,0.00,,,0.00,meteohub,2013-07-03 02:57:00,
2013-07-02 21:02:00,81.3,42.1,24.28,SW,225,10.0,11.0,25,0.00,,,0.00,meteohub,2013-07-03 03:02:00,
2013-07-02 21:07:00,81.3,42.1,24.29,SW,225,10.0,11.0,25,0.00,,,0.00,meteohub,2013-07-03 03:07:00,
2013-07-02 21:12:00,80.8,40.6,24.28,SW,225,10.0,11.0,24,0.00,,,0.00,meteohub,2013-07-03 03:12:00,
2013-07-02 21:22:00,80.1,42.1,24.27,NNE,23,11.0,12.0,26,0.00,,,0.00,meteohub,2013-07-03 03:22:00,
2013-07-02 21:27:00,79.5,41.5,24.28,SW,225,13.0,13.0,26,0.00,,,0.00,meteohub,2013-07-03 03:27:00,
2013-07-02 21:32:00,79.7,40.8,24.28,SSW,203,11.0,14.0,25,0.00,,,0.00,meteohub,2013-07-03 03:32:00,
2013-07-02 21:37:00,79.9,39.9,24.27,South,180,12.0,14.0,24,0.00,,,0.00,meteohub,2013-07-03 03:37:00,
2013-07-02 21:42:00,79.9,38.8,24.28,SW,225,13.0,14.0,23,0.00,,,0.00,meteohub,2013-07-03 03:42:00,
2013-07-02 21:47:00,79.9,37.6,24.28,SW,225,13.0,15.0,22,0.00,,,0.00,meteohub,2013-07-03 03:47:00,
2013-07-02 21:52:00,80.1,37.8,24.28,SW,225,13.0,15.0,22,0.00,,,0.00,meteohub,2013-07-03 03:52:00,
2013-07-02 21:57:00,79.9,37.6,24.28,SSW,203,11.0,15.0,22,0.00,,,0.00,meteohub,2013-07-03 03:57:00,
2013-07-02 22:02:00,79.9,37.6,24.28,SW,225,10.0,13.0,22,0.00,,,0.00,meteohub,2013-07-03 04:02:00,
2013-07-02 22:07:00,79.9,37.6,24.28,SW,225,10.0,13.0,22,0.00,,,0.00,meteohub,2013-07-03 04:07:00,
2013-07-02 22:12:00,80.2,35.6,24.28,SW,225,9.0,13.0,20,0.00,,,0.00,meteohub,2013-07-03 04:12:00,
2013-07-02 22:17:00,81.0,36.1,24.28,SW,225,10.0,11.0,20,0.00,,,0.00,meteohub,2013-07-03 04:17:00,
2013-07-02 22:22:00,80.6,40.5,24.28,SW,225,11.0,11.0,24,0.00,,,0.00,meteohub,2013-07-03 04:22:00,
2013-07-02 22:27:00,80.6,40.5,24.28,SW,225,9.0,11.0,24,0.00,,,0.00,meteohub,2013-07-03 04:27:00,
2013-07-02 22:32:00,80.6,41.5,24.27,SW,225,8.0,11.0,25,0.00,,,0.00,meteohub,2013-07-03 04:32:00,
2013-07-02 22:37:00,80.6,43.5,24.28,SW,225,9.0,11.0,27,0.00,,,0.00,meteohub,2013-07-03 04:37:00,
2013-07-02 22:42:00,79.7,44.6,24.28,SW,225,11.0,11.0,29,0.00,,,0.00,meteohub,2013-07-03 04:42:00,
2013-07-02 22:47:00,79.9,43.0,24.28,SW,225,11.0,12.0,27,0.00,,,0.00,meteohub,2013-07-03 04:47:00,
2013-07-02 22:52:00,80.1,43.0,24.27,SW,225,11.0,12.0,27,0.00,,,0.00,meteohub,2013-07-03 04:52:00,
2013-07-02 22:57:00,80.1,42.1,24.27,SW,225,14.0,14.0,26,0.00,,,0.00,meteohub,2013-07-03 04:57:00,
2013-07-02 23:02:00,80.2,41.2,24.27,SW,225,15.0,15.0,25,0.00,,,0.00,meteohub,2013-07-03 05:02:00,
2013-07-02 23:07:00,80.2,41.2,24.27,SW,225,15.0,15.0,25,0.00,,,0.00,meteohub,2013-07-03 05:07:00,
2013-07-02 23:12:00,79.9,41.9,24.27,SW,225,13.0,15.0,26,0.00,,,0.00,meteohub,2013-07-03 05:12:00,
2013-07-02 23:17:00,79.2,41.4,24.27,SW,225,15.0,15.0,26,0.00,,,0.00,meteohub,2013-07-03 05:17:00,
2013-07-02 23:22:00,79.3,40.5,24.27,WNW,293,16.0,16.0,25,0.00,,,0.00,meteohub,2013-07-03 05:22:00,
2013-07-02 23:27:00,79.2,40.3,24.27,SW,225,15.0,16.0,25,0.00,,,0.00,meteohub,2013-07-03 05:27:00,
2013-07-02 23:32:00,79.0,40.1,24.27,SW,225,13.0,16.0,25,0.00,,,0.00,meteohub,2013-07-03 05:32:00,
2013-07-02 23:37:00,78.4,39.7,24.27,SW,225,15.0,16.0,25,0.00,,,0.00,meteohub,2013-07-03 05:37:00,
2013-07-02 23:47:00,78.1,40.5,24.27,SW,225,15.0,18.0,26,0.00,,,0.00,meteohub,2013-07-03 05:47:00,
2013-07-02 23:52:00,78.3,39.6,24.27,NW,315,18.0,18.0,25,0.00,,,0.00,meteohub,2013-07-03 05:52:00,
2013-07-02 23:57:00,78.3,40.6,24.27,West,270,18.0,18.0,26,0.00,,,0.00,meteohub,2013-07-03 05:57:00,